Weather in Kornilovo

Russia / Novosibirsk Oblast     55°31′03″N   84°35′30″E
temp.,
°C
wind,
m/s
gust,
m/s
humid.,
%
clouds,
%
prec.,
mm/h
press.,
hPa
HPBL,
m
1 march, mon
mon101:00−14se4895100 0.5 1025217
04:00−13ese4895100 0.2 1021242
07:00−11ese4795100 0.8 1017249
10:00−9ese4895100 0.9 1014354
13:00−6ese5795100 1.7 1011502
16:00−5ene6996100 1.9 1010480
19:00−8ne61094100 3.9 1009326
22:00−11ne61094100 0.3 1008301
2 march, tue
tue201:00−12ne5895100 0.6 1009283
04:00−14nne4796100 0.2 1010226
07:00−17nne359799 0.3 1012113
10:00−17ne239795 0.1 1014135
13:00−14nw119097 0.3 1015278
16:00−12wnw1288100 0.1 1015384
19:00−15ne0196100 0.2 101620
22:00−16se1197100 0.1 101620
3 march, wed
wed301:00−16s1297100 0.1 101620
04:00−16sw129696 0.0 101620
07:00−16wsw119790 0.1 101720
10:00−14wsw119486 0.1 101799
13:00−11ssw228789 0.1 1017396
16:00−10sw3490100 0.1 1018472
19:00−11sw359597 0.3 1019108
22:00−14ssw369670 0.1 102198
4 march, thu
thu401:00−15ssw5119572 0.1 1022264
04:00−16s6129463 0.0 1022270
07:00−15s6139175 0.0 1022331
10:00−11s81494100 0.4 1020580
13:00−7ssw81492100 1.0 1019755
16:00−5ssw81492100 0.4 1017781
19:00−5ssw81592100 0.7 1017752
22:00−5ssw81594100 0.8 1015781
5 march, fri
fri501:00−5ssw81686100 1.3 1015629
04:00−6ssw81686100 0.0 1013513
07:00−7s6168594 0.0 1012459
10:00−6ssw71584100 0.0 1010559
13:00−4ssw81394100 1.5 1008827
16:00−3wsw91394100 0.8 1009829
19:00−3wsw10158299 1.1 1013794
22:00−8wsw8168865 0.0 1018571